Skip Page Navigation
NASA JPL Caltech
NASA Logo - Jet Propulsion Laboratory + View the NASA Portal
+ Center for Near-Earth Object Studies
JPL Home Earth Solar System Stars & Galaxies Technology
JPL Solar System Dynamics
BODIES ORBITS EPHEMERIDES TOOLS PHYSICAL DATA DISCOVERY FAQ SITE MAP
JPL Small-Body Database Browser
Search: [ help ]  
91011 (1998 CH2)
Classification: Main-belt Asteroid          SPK-ID: 2091011
Ephemeris | Orbit Diagram | Orbital Elements | Mission Design | Physical Parameters | Discovery Circumstances | Close-Approach Data ]

[ show orbit diagram ]
Orbital Elements at Epoch 2459000.5 (2020-May-31.0) TDB
Reference: JPL 19 (heliocentric ecliptic J2000)
 Element Value Uncertainty (1-sigma)   Units 
e .178938288067787 6.0541e-08  
a 2.551320422167263 1.3971e-08 au
q 2.094791513512269 1.5398e-07 au
i 7.529914043722344 6.2577e-06 deg
node 348.0718067730552 4.0334e-05 deg
peri 142.0625705327948 4.3168e-05 deg
M 178.2650898703832 2.0428e-05 deg
tp 2458263.428300108811
(2018-May-24.92830011)
8.013e-05 TDB
period 1488.490046782359
4.08
1.2226e-05
3.347e-08
d
yr
n .2418558328812512 1.9866e-09 deg/d
Q 3.007849330822256 1.6471e-08 au
  Orbit Determination Parameters
   # obs. used (total)      599  
   data-arc span      11062 days (30.29 yr)  
   first obs. used      1990-04-15  
   last obs. used      2020-07-28  
   planetary ephem.      DE431  
   SB-pert. ephem.      SB431-N16  
   condition code      0  
   norm. resid. RMS      .58198  
   source      ORB  
   producer      Otto Matic  
   solution date      2020-Aug-25 08:14:40  

Additional Information
 Earth MOID = 1.11481 au 
 Jupiter MOID = 2.04648 au 
 T_jup = 3.405 
[ hide covariance matrix ]
Orbital Elements at Epoch 2456990.5 (2014-Nov-29.0) TDB
Reference: JPL 19 (heliocentric ecliptic J2000)
 Element Value Uncertainty (1-sigma)   Units 
e .1785918462817714 6.0148e-08  
q 2.094470018675905 1.528e-07 au
tp 2456772.856280043721
(2014-Apr-25.35628004)
7.2295e-05 TDB
node 348.2688688792356 4.0395e-05 deg
peri 141.3121227167609 4.3285e-05 deg
i 7.525727595098025 6.2496e-06 deg
  Orbit Determination Parameters
   # obs. used (total)      599  
   data-arc span      11062 days (30.29 yr)  
   first obs. used      1990-04-15  
   last obs. used      2020-07-28  
   planetary ephem.      DE431  
   SB-pert. ephem.      SB431-N16  
   condition code      0  
   norm. resid. RMS      .58198  
   source      ORB  
   producer      Otto Matic  
   solution date      2020-Aug-25 08:14:40  

Additional Information
 Jupiter MOID = 2.04648 au 
 T_jup = 3.405 
Orbit Covariance (6×6)
  e q tp node peri i
e 3.617825586876269E-15 -9.165291923081222E-15 7.965866443225539E-14 1.317648004983163E-14 4.394898113933478E-14 -2.906697637115032E-15
q -9.165291923081222E-15 2.334879299693139E-14 3.219960794848941E-13 -3.054696155828828E-14 1.682537826407202E-16 7.872482601519248E-15
tp 7.965866443225539E-14 3.219960794848941E-13 5.22649525443768E-9 1.983995465170015E-11 1.156365711361615E-9 1.905958391553318E-12
node 1.317648004983163E-14 -3.054696155828828E-14 1.983995465170015E-11 1.631792556808147E-9 -1.612243081712194E-9 -8.395224451120613E-11
peri 4.394898113933478E-14 1.682537826407202E-16 1.156365711361615E-9 -1.612243081712194E-9 1.873555950138048E-9 8.365067621094784E-11
i -2.906697637115032E-15 7.872482601519248E-15 1.905958391553318E-12 -8.395224451120613E-11 8.365067621094784E-11 3.905713427914169E-11

Ephemeris | Orbit Diagram | Orbital Elements | Mission Design | Physical Parameters | Discovery Circumstances | Close-Approach Data ]

Physical Parameter Table
Parameter Symbol Value Units Sigma Reference Notes
absolute magnitude H 15.2   n/a MPO385377  
diameter diameter 1.909 km 0.349 urn:nasa:pds:neowise_diameters_albedos::2.0[mainbelt] (http://adsabs.harvard.edu/abs/2011ApJ...741...68M)  
geometric albedo albedo 0.485   0.214 urn:nasa:pds:neowise_diameters_albedos::2.0[mainbelt] (http://adsabs.harvard.edu/abs/2011ApJ...741...68M)  

91011 (1998 CH2)          Discovered 1998-Feb-08 by Galad, A., Pravda, A. at Modra
Reference: 20041028/Numbers.arcLast Updated: 2004-10-29

[ show close-approach data ]
Alternate Designations
 1998 CH2 = 1990 GG = 1994 CZ10 
Ephemeris | Orbit Diagram | Orbital Elements | Mission Design | Physical Parameters | Discovery Circumstances | Close-Approach Data ]
ABOUT SSD CREDITS/AWARDS PRIVACY/COPYRIGHT GLOSSARY LINKS
FirstGov 2020-Oct-22 01:37 UT
(server date/time)  
NASA Home Page
Site Manager:   Ryan S. Park
Webmaster  Alan B. Chamberlin